STARLINK-38187, 100259

Orbit data source: Space-Track

STARLINK-38187, 100259 is a payload satellite owned by SpaceX/Seattle (US) in SSO that was launched on Sat, 08 Aug 2026 UTC launched from the Air Force Western Test Range (AFWTR). Payload-class satellites include a variety of spacecraft equipped with specific instruments for various scientific and technological missions. These include communications satellites like Starlink; space stations such as the ISS; scientific satellites like the Hubble; Earth observation satellites from companies like Planet Labs, Umbra, and HawkEye 360; GPS; miniature CubeSats for education and research; and military/defense satellites.

Loading next visibility...
Identifier
100259, 2026-181P
Orbit
SSO
Country
Flag of USUS
Related business
Manufacturer
SpaceX/Seattle
Mission
Operational spacecraft
Bus & Motor
STARLINK V2MO, Unknown motor
Mass
575 kg wet, ~530 kg dry
Launch date (UTC)
2026-08-08 (1 month ago)
Launch vehicle
Unknown
Launch site
Air Force Western Test Range (AFWTR)
Object type
Payload
Rocket body
Debris
Shape & HBR
BOX, 17.7 m
Radar Cross Section
RCS unknown

Expand to show TLE details & history
Last TLE update: 7 hours ago

TLE from 7 hours ago
0 STARLINK-38187
1 A0259U 26181P   26249.60732575  .00147150  00000-0  96732-3 0  9990
2 A0259  97.2852 292.5203 0001801  61.2738 298.8708 15.75265981  5771
Epoch: 2026-09-06T14:34Z
TLE epoch observation values (Epoch: 2026-09-06T14:34:32.944Z)
Latitude
-0.00005°
Longitude
88.18302°
Altitude
346.458 km
Speed
7.701 km/s
True Right ascension
19h 30m 04s
True Declination
0° 00' 00"
Sunlit
Object was in full shadow at epoch
Visualization orbit readout
Latitude
Unknown
Longitude
Unknown
Altitude
Unknown
Speed
Unknown
Apparent Right ascension
Unknown
Apparent Declination
Unknown
Sunlit
N/A
Visualization observer readout
Local Sidereal Time
13:27:54
Azimuth
Unknown
Elevation
Unknown
Doppler factor
Unknown
Orbital elements
Apogee altitude
341.972 km
Perigee altitude
339.552 km
Semi-major axis
6,718.899 km
Eccentricity
0.00018
Inclination
97.2852°
RAAN
292.5203°
Arg. of periapsis
61.2738°
True anomaly
298.85273°
Mean anomaly
298.8708°
Eccentric anomaly
298.86176°
Mean motion
3.94091 °/min
Orbital period
91.35 mins
BSTAR
0.00096732
Loading maneuver chart data...
Computing Atmospheric mass density...
Loading historical data...
Loading historical data...
Loading historical data...
Loading historical data...
Loading historical data...
Loading historical data...
Loading historical data...

Documentation

Showing up to 5 results
|